AEST,Max TemperatureF,Mean TemperatureF,Min TemperatureF,Max Dew PointF,MeanDew PointF,Min DewpointF,Max Humidity, Mean Humidity, Min Humidity, Max Sea Level PressureIn, Mean Sea Level PressureIn, Min Sea Level PressureIn, Max VisibilityMiles, Mean VisibilityMiles, Min VisibilityMiles, Max Wind SpeedMPH, Mean Wind SpeedMPH, Max Gust SpeedMPH,PrecipitationIn, CloudCover, Events, WindDirDegrees
2011-12-1,86,80,75,75,73,72,94,80,62,29.83,29.76,29.68,6,6,2,17,9,,0.00,5,Rain,161
2011-12-2,89,83,77,75,72,64,94,72,43,29.80,29.74,29.71,6,6,5,18,9,,0.00,2,Rain,150
2011-12-3,86,80,75,73,72,70,94,77,62,29.83,29.77,29.74,6,6,2,16,10,,0.00,6,Rain,161
2011-12-4,86,80,75,77,73,72,94,80,62,29.80,29.74,29.68,6,6,3,13,8,,0.00,5,Rain,153
2011-12-5,86,82,77,77,73,70,89,78,62,29.77,29.71,29.65,6,6,5,18,8,29,0.00,5,Rain,131
2011-12-6,87,81,75,77,74,72,94,80,62,29.77,29.71,29.65,6,6,6,10,5,,0.00,3,Rain,98
2011-12-7,91,84,77,77,76,73,94,79,55,29.74,29.68,29.62,6,6,6,15,4,,0.00,4,,10
2011-12-8,95,84,73,75,72,68,94,69,46,29.74,29.66,29.59,6,6,6,14,4,,0.00,2,,128
2011-12-9,89,82,75,79,75,73,94,78,62,29.80,29.73,29.68,6,6,6,9,3,,0.00,2,Rain,40
2011-12-10,89,84,78,77,76,73,94,79,62,29.83,29.76,29.68,6,6,6,10,6,,0.00,4,,331
2011-12-11,89,84,80,79,75,68,89,71,55,29.77,29.72,29.62,6,6,6,15,8,20,0.00,5,Rain,328
2011-12-12,91,86,80,79,76,73,89,74,55,29.71,29.66,29.62,6,6,6,12,4,,0.00,5,,331
2011-12-13,95,86,78,81,76,72,89,73,49,29.74,29.65,29.59,6,6,6,13,3,,0.00,5,Rain-Thunderstorm,329
2011-12-14,93,85,77,79,76,70,89,74,49,29.77,29.69,29.65,6,6,6,16,6,,0.00,4,Rain,106
2011-12-15,89,83,77,77,74,73,94,79,62,29.80,29.75,29.68,6,6,3,15,7,,0.00,5,Rain-Thunderstorm,164
2011-12-16,82,78,75,77,75,72,100,89,74,29.83,29.79,29.71,6,5,1,15,8,,0.00,6,Rain-Thunderstorm,172
2011-12-17,87,82,78,75,72,68,89,72,55,29.86,29.82,29.77,6,6,6,21,12,,0.00,6,Rain,155
2011-12-18,87,81,75,73,72,70,94,77,55,29.86,29.82,29.77,6,6,2,17,11,,0.00,6,Rain,172
2011-12-19,87,81,75,73,72,68,94,78,52,29.83,29.78,29.71,6,6,3,20,10,,0.00,5,Rain,166
2011-12-20,87,81,75,73,71,70,94,75,55,29.80,29.76,29.71,6,6,6,17,9,,0.00,4,Rain,156
2011-12-21,89,82,75,72,69,64,89,66,43,29.80,29.74,29.68,6,6,6,23,11,,0.00,1,,156
2011-12-22,91,82,73,73,69,63,88,66,43,29.74,29.71,29.65,6,6,6,16,10,,0.00,3,Rain,153
2011-12-23,89,81,73,75,72,68,94,74,52,29.71,29.66,29.59,6,6,6,12,6,,0.00,6,,140
2011-12-24,87,81,75,75,74,70,94,77,58,29.71,29.66,29.59,6,6,6,10,4,,0.00,3,Rain,61
2011-12-25,87,81,75,75,74,72,94,77,58,29.77,29.69,29.65,6,6,6,10,4,,0.00,4,,337
2011-12-26,87,82,77,77,75,72,89,78,66,29.77,29.73,29.68,6,6,6,13,5,,0.00,5,,337
2011-12-27,89,82,75,79,75,72,100,83,59,29.74,29.69,29.62,6,5,0,30,6,38,0.00,6,Rain-Thunderstorm,197
2011-12-28,86,82,77,77,73,70,100,80,62,29.74,29.69,29.65,6,6,6,15,7,,0.00,7,Rain,196
2011-12-29,80,76,71,75,73,70,100,92,79,29.80,29.72,29.68,6,5,1,15,7,,0.00,7,Rain,157
2011-12-30,86,78,71,75,71,68,94,79,58,29.80,29.73,29.68,6,6,2,21,12,31,0.00,6,Rain,160
2011-12-31,87,81,75,73,70,64,94,72,48,29.86,29.79,29.74,6,6,3,22,14,,0.00,3,Rain,151